Find Starlink 2336

NORAD ID: 47879 Int'l Des: 2021-021 Owner: SPXS Country: US Constellation: starlink decayed
LEOCIRCULAR

Re-entered — Sep 16, 2026

3D地球を読み込み中...

About Starlink 2336

Starlink 2336 (NORAD 47879) is a starlink constellation satellite (v1.0) launched Mar 14, 2021 by SPXS of US. It re-entered the atmosphere on Sep 16, 2026. with a mass of 260.00 kg.

高度履歴

Loading altitude history...

軌道要素

1 47879U 21021V 26259.69905116 .09007087 12440-4 51440-3 0 9995
2 47879 53.1326 63.8487 0008768 285.1823 74.8255 16.41712553306174
Epoch: Sep 16, 2026 • Age: 156 hours

現在のステータス

Position data unavailable
打ち上げ日 Mar 14, 2021
運用期間 5.5 years
落下予定日 Sep 16, 2026
タイプ internet

技術仕様

分類 Payload
質量 260.00 kg
乾燥質量 248.00 kg
長さ 0.20 m
スパン 9.00 m
形状 ? Box + pan
製造者 SPXS
バスタイプ Starlink
フェーズステータス In Orbit
所有者/国 SPXS/US

Most Searched